Regional Weather Roundup
Issued by NWS Green Bay, WI

Home | Current Version | Previous Version | Text Only | Print | Product List | Glossary On
Versions: 1 2 3 4 5 6 7 8 9 10 11 12 13 14 15 16 17 18 19 20 21 22 23 24 25 26 27 28 29 30 31 32 33 34 35 36 37 38 39 40 41 42 43 44 45 46 47 48 49 50
035
ASUS43 KGRB 242111
RWRGRB

NORTH-CENTRAL AND NORTHEAST WISCONSIN REGIONAL WEATHER ROUNDUP
NATIONAL WEATHER SERVICE GREEN BAY WI
300 PM CST FRI FEB 24 2017

WIZ005-009-010>012-018-019-242200-
NORTH CENTRAL WISCONSIN

CITY           SKY/WX    TMP DP  RH WIND       PRES   REMARKS
IRONWOOD       SNOW      20  17  88 N13       29.79F VSB 1/4 WCI   7
MANITOWISH WTR LGT SNOW  19  16  90 N13G22    29.70F WCI   5
ARBOR VITAE    LGT SNOW  22  17  83 N14G20      N/A  WCI   9
EAGLE RIVER    CLOUDY    19  13  76 N14G25    29.67S WCI   6
LAND O LAKES   LGT SNOW  19  14  80 N16G26    29.71S WCI   4
RHINELANDER    MIX PCPN  21  14  74 N13G24    29.65F WCI   9
PHILLIPS       LGT SNOW  21  16  81 N22G28    29.69S WCI   4
ANTIGO         CLOUDY    22  18  86 N16       29.62S WCI   8
TOMAHAWK       CLOUDY    22  15  75 N12G21    29.67S
MERRILL        NOT AVBL
$$

WIZ013-073-242200-
NORTHEAST WISCONSIN

CITY           SKY/WX    TMP DP  RH WIND       PRES   REMARKS
IRON MOUNTAIN  FRZ RAIN  24  18  77 N21G26    29.64F WCI   9
MARINETTE      MIX PCPN  27  24  89 MISG        N/A  FOG
OCONTO         CLOUDY    27  25  92 N16G22    29.61F
$$

WIZ017-030-035>037-045-242200-
CENTRAL WISCONSIN

CITY           SKY/WX    TMP DP  RH WIND       PRES   REMARKS
MEDFORD        CLOUDY    23  17  77 N18G26    29.65R WCI   8
WAUSAU         FLURRIES  24  18  77 N14G24    29.62S
MOSINEE        LGT SNOW  25  21  86 N15G21    29.63F
MARSHFIELD     FLURRIES  26  18  71 N10G22    29.63R
WISC RAPIDS    CLOUDY    26  23  88 NE12      29.63S FOG
STEVENS POINT  CLOUDY    23  21  91 N13       29.63S FOG
WAUPACA        CLOUDY    28  25  86 N10G17    29.60F FOG
SHAWANO        CLOUDY    28  25  87 N16G25    29.62S FOG
CLINTONVILLE   MIX PCPN  27  23  86 N15G22    29.61S
WAUTOMA        CLOUDY    27  24  89 N13       29.61R
$$

WIZ038-039-048-051-242200-
FOX VALLEY

CITY           SKY/WX    TMP DP  RH WIND       PRES   REMARKS
NWS GREEN BAY  LGT SNOW  29  27  92 N20       29.58S FOG
APPLETON       CLOUDY    27  27 100 N21G28    29.55F FOG
OSHKOSH        CLOUDY    28  25  88 N21       29.56S FOG
FOND DU LAC    LGT SNOW  29  25  85 N22       29.56R FOG
$$

WIZ022-050-052-242200-
EAST CENTRAL WISCONSIN

CITY           SKY/WX    TMP DP  RH WIND       PRES   REMARKS
EPHRAIM        MIX PCPN  27  27 100 N17G24    29.58F
WASHINGTON ISL MIX PCPN  27  26  95 NE16G23   29.61F
STURGEON BAY   MIX PCPN  28  27  96 N22       29.58F FOG
MANITOWOC      MIX PCPN  30  28  92 N14       29.54R FOG
SHEBOYGAN      FRZ RAIN  32  30  92 N14G26    29.51S FOG
$$

LMZ563-521-522-541>543-242200-
LAKESHORE

STATION/POSITION TIME  TEMP    WIND        PRES    VSBY  WAVE
                       AIR SEA DIR/SP/G                  HT/PER
                 (UTC) (F)     (DEG/KT/KT) (MB)    (MI)  (FT/S)
SHEBOYGAN LKSHOR 2100   33      10/ 29/ 33  999.5F
KEWAUNEE LKSHORE 2048   29      10/ 13/ 19 1000.7F
NORTHPORT PIER   2040   28      10/  6/  7 1003.4F
SISTER BAY LKSHO 1950   29      30/ 13/ 22   N/A
MENOMINEE LKSHOR 2048   27     360/ 15/ 22 1002.2F
$$




USA.gov is the U.S. government's official web portal to all federal, state and local government web resources and services.